Weather History for West Point, VA

Change the Weather History Date:

Monday, April 15, 2013

  Actual Average (KRIC) Record (KRIC)
Temperature  
Mean Temperature 58 °F 58 °F  
Max Temperature 64 °F 70 °F 92 °F (1941)
Min Temperature 52 °F 46 °F 29 °F (1943)
Degree Days  
Heating Degree Days 7 8  
Month to date heating degree days 147  
Since 1 July heating degree days 3599  
Cooling Degree Days 0 1  
Month to date cooling degree days 14  
Year to date cooling degree days 20  
Growing Degree Days 8 (Base 50)    
Moisture  
Dew Point 51 °F    
Average Humidity 77    
Maximum Humidity 96    
Minimum Humidity 46    
Precipitation  
Precipitation 0.00 in 0.10 in 2.51 in (1983)
Month to date precipitation 1.69  
Year to date precipitation 11.53  
Snow  
Snow 0.00 in 0.00 in 0.00 in (2002)
Month to date snowfall 0.1  
Since 1 July snowfall 10.3  
Snow Depth -    
Sea Level Pressure  
Sea Level Pressure 30.22 in    
Wind  
Wind Speed 5 mph (ENE)    
Max Wind Speed 13 mph    
Max Gust Speed 20 mph    
Visibility 10 miles    
Events      
T = Trace of Precipitation, MM = Missing Value Source: NWS Daily Summary

Daily Weather History Graph

Daily Weather History Graph

Search for Another Location

Airport:

Trip Planner

Search our weather history database for the weather conditions in past years. The results will help you decide how hot, cold, wet, or windy it might be!

Date:

Astronomy

Apr. 15, 2013 Rise Set
Actual Time 6:31 AM EDT 7:42 PM EDT
Civil Twilight 6:04 AM EDT 8:09 PM EDT
Nautical Twilight 5:32 AM EDT 8:42 PM EDT
Astronomical Twilight 4:59 AM EDT 9:15 PM EDT
Moon 9:59 AM EDT (4/15) No Moon Set
Length of Visible Light 14h 04m
Length of Day
13h 10m
Waxing Crescent, 24% of the Moon is Illuminated
Apr 15
Waxing Crescent
Apr 18
First Quarter
Apr 25
Full
May 2
Last Quarter
May 9
New

Hourly Weather History & Observations

Time (EDT) Temp. Dew Point Humidity Pressure Visibility Wind Dir Wind Speed Gust Speed Precip Events Conditions
12:15 AM 58.3 °F 40.1 °F 51% 30.13 in 10.0 mi ESE 6.9 mph - N/A   Clear
12:35 AM 58.5 °F 39.6 °F 49% 30.13 in 10.0 mi ESE 5.8 mph - N/A   Clear
12:55 AM 58.8 °F 39.2 °F 48% 30.13 in 10.0 mi ESE 5.8 mph - N/A   Clear
1:15 AM 58.3 °F 39.7 °F 50% 30.13 in 10.0 mi East 6.9 mph - N/A   Clear
1:35 AM 59.0 °F 38.5 °F 47% 30.13 in 10.0 mi East 6.9 mph - N/A   Clear
1:55 AM 59.4 °F 38.3 °F 46% 30.13 in 10.0 mi ESE 5.8 mph - N/A   Clear
2:15 AM 59.0 °F 39.0 °F 48% 30.13 in 10.0 mi East 3.5 mph - N/A   Scattered Clouds
2:35 AM 58.8 °F 39.9 °F 50% 30.14 in 10.0 mi ESE 3.5 mph - N/A   Scattered Clouds
2:55 AM 59.2 °F 39.9 °F 49% 30.16 in 10.0 mi East 4.6 mph - N/A   Overcast
3:15 AM 59.4 °F 40.1 °F 49% 30.18 in 10.0 mi Calm Calm - N/A   Overcast
3:35 AM 58.8 °F 43.0 °F 56% 30.19 in 10.0 mi Calm Calm - N/A   Overcast
3:55 AM 57.6 °F 45.0 °F 63% 30.20 in 10.0 mi Calm Calm - N/A   Overcast
4:15 AM 55.8 °F 47.7 °F 74% 30.21 in 10.0 mi East 3.5 mph - N/A   Overcast
4:35 AM 54.7 °F 48.9 °F 81% 30.21 in 10.0 mi Calm Calm - N/A   Overcast
4:55 AM 53.1 °F 51.1 °F 93% 30.21 in 10.0 mi Calm Calm - N/A   Overcast
5:15 AM 52.5 °F 51.3 °F 95% 30.19 in 10.0 mi Calm Calm - N/A   Overcast
5:35 AM 53.2 °F 51.1 °F 92% 30.18 in 10.0 mi ENE 3.5 mph - N/A   Overcast
5:55 AM 53.2 °F 50.9 °F 92% 30.18 in 10.0 mi Calm Calm - N/A   Overcast
6:15 AM 54.1 °F 50.2 °F 86% 30.18 in 10.0 mi NE 4.6 mph - N/A   Overcast
6:35 AM 55.0 °F 50.0 °F 83% 30.18 in 10.0 mi Calm Calm - N/A   Overcast
6:55 AM 54.3 °F 51.8 °F 91% 30.19 in 10.0 mi Calm Calm - N/A   Overcast
7:15 AM 54.7 °F 52.2 °F 91% 30.19 in 10.0 mi Calm Calm - N/A   Overcast
7:35 AM 54.9 °F 53.1 °F 94% 30.19 in 10.0 mi Calm Calm - N/A   Overcast
7:55 AM 56.1 °F 52.5 °F 88% 30.23 in 10.0 mi SSE 5.8 mph - N/A   Overcast
8:15 AM 57.2 °F 52.3 °F 84% 30.23 in 10.0 mi Calm Calm - N/A   Overcast
8:35 AM 57.2 °F 52.5 °F 84% 30.23 in 10.0 mi Calm Calm - N/A   Overcast
8:55 AM 57.7 °F 52.7 °F 83% 30.23 in 10.0 mi Calm Calm - N/A   Overcast
9:15 AM 58.5 °F 54.1 °F 86% 30.22 in 10.0 mi ENE 6.9 mph - N/A   Overcast
9:35 AM 59.4 °F 53.6 °F 81% 30.22 in 10.0 mi NE 3.5 mph - N/A   Overcast
9:55 AM 59.9 °F 54.3 °F 82% 30.21 in 10.0 mi NE 4.6 mph - N/A   Overcast
10:15 AM 60.1 °F 54.5 °F 82% 30.22 in 10.0 mi NE 5.8 mph - N/A   Overcast
10:35 AM 61.5 °F 54.7 °F 78% 30.21 in 10.0 mi East 10.4 mph - N/A   Overcast
10:55 AM 62.6 °F 55.0 °F 76% 30.21 in 10.0 mi NE 6.9 mph - N/A   Overcast
11:15 AM 62.8 °F 55.6 °F 77% 30.22 in 10.0 mi East 9.2 mph - N/A   Overcast
11:35 AM 63.0 °F 55.0 °F 75% 30.22 in 10.0 mi ENE 6.9 mph - N/A   Overcast
11:55 AM 63.5 °F 54.7 °F 73% 30.22 in 10.0 mi NE 5.8 mph - N/A   Overcast
12:15 PM 63.5 °F 54.7 °F 73% 30.22 in 10.0 mi NE 9.2 mph - N/A   Overcast
12:35 PM 64.2 °F 55.2 °F 73% 30.21 in 10.0 mi ENE 11.5 mph - N/A   Overcast
12:55 PM 63.7 °F 54.7 °F 72% 30.21 in 10.0 mi ENE 6.9 mph - N/A   Overcast
1:15 PM 63.7 °F 55.2 °F 74% 30.21 in 10.0 mi ENE 10.4 mph - N/A   Overcast
1:35 PM 63.5 °F 55.0 °F 74% 30.21 in 10.0 mi NE 11.5 mph 16.1 mph N/A   Overcast
1:55 PM 64.4 °F 55.9 °F 74% 30.22 in 10.0 mi ENE 10.4 mph - N/A   Overcast
2:15 PM 64.6 °F 55.9 °F 74% 30.23 in 10.0 mi East 12.7 mph 17.3 mph N/A   Overcast
2:35 PM 63.9 °F 55.2 °F 73% 30.23 in 10.0 mi ENE 12.7 mph 16.1 mph N/A   Overcast
2:55 PM 64.4 °F 55.8 °F 73% 30.22 in 10.0 mi NE 11.5 mph 19.6 mph N/A   Overcast
3:15 PM 62.8 °F 55.0 °F 76% 30.22 in 10.0 mi NE 12.7 mph - N/A   Overcast
3:35 PM 61.7 °F 54.5 °F 77% 30.22 in 10.0 mi ENE 11.5 mph - N/A   Overcast
3:55 PM 60.4 °F 53.6 °F 78% 30.22 in 10.0 mi ENE 10.4 mph - N/A   Overcast
4:15 PM 59.9 °F 53.1 °F 78% 30.23 in 10.0 mi ENE 10.4 mph - N/A   Overcast
4:35 PM 59.9 °F 53.1 °F 78% 30.23 in 10.0 mi NE 6.9 mph - N/A   Overcast
4:55 PM 59.9 °F 52.9 °F 78% 30.23 in 10.0 mi ENE 8.1 mph - N/A   Overcast
5:15 PM 60.1 °F 52.9 °F 77% 30.23 in 10.0 mi ENE 11.5 mph - N/A   Overcast
5:35 PM 60.3 °F 53.1 °F 77% 30.24 in 10.0 mi ENE 10.4 mph - N/A   Overcast
5:55 PM 60.3 °F 53.6 °F 79% 30.23 in 10.0 mi ENE 9.2 mph - N/A   Overcast
6:15 PM 60.1 °F 53.6 °F 79% 30.24 in 10.0 mi ENE 9.2 mph - N/A   Overcast
6:35 PM 60.1 °F 54.0 °F 80% 30.24 in 10.0 mi East 9.2 mph - N/A   Overcast
6:55 PM 60.1 °F 54.1 °F 81% 30.24 in 10.0 mi ENE 5.8 mph - N/A   Overcast
7:15 PM 59.9 °F 54.5 °F 82% 30.24 in 10.0 mi ENE 8.1 mph - N/A   Overcast
7:35 PM 59.7 °F 54.5 °F 83% 30.24 in 10.0 mi ENE 4.6 mph - N/A   Overcast
7:55 PM 59.5 °F 54.7 °F 84% 30.25 in 10.0 mi ENE 5.8 mph - N/A   Overcast
8:15 PM 59.4 °F 54.9 °F 85% 30.26 in 10.0 mi ENE 3.5 mph - N/A   Overcast
8:35 PM 59.4 °F 55.0 °F 86% 30.26 in 10.0 mi ENE 5.8 mph - N/A   Overcast
8:55 PM 59.4 °F 55.0 °F 86% 30.26 in 10.0 mi East 4.6 mph - N/A   Overcast
9:15 PM 59.0 °F 55.4 °F 88% 30.27 in 10.0 mi East 5.8 mph - N/A   Overcast
9:35 PM 59.2 °F 55.4 °F 87% 30.28 in 10.0 mi East 6.9 mph - N/A   Overcast
9:55 PM 59.2 °F 55.2 °F 87% 30.28 in 10.0 mi East 5.8 mph - N/A   Overcast
10:35 PM 59.0 °F 54.7 °F 86% 30.29 in 10.0 mi East 3.5 mph - N/A   Mostly Cloudy
10:55 PM 57.6 °F 54.5 °F 90% 30.29 in 10.0 mi East 3.5 mph - N/A   Scattered Clouds
11:15 PM 56.5 °F 54.3 °F 92% 30.29 in 10.0 mi Calm Calm - N/A   Scattered Clouds
11:35 PM 56.1 °F 54.7 °F 95% 30.29 in 10.0 mi East 3.5 mph - N/A   Mostly Cloudy
11:55 PM 54.7 °F 53.6 °F 96% 30.29 in 10.0 mi ENE 4.6 mph - N/A   Scattered Clouds